カタログに戻る

STARLINK-31193

運用中通信VLEO
NORAD 58797·PAYLOAD·🇺🇸 United States

打ち上げ Jan 15, 2024 から Cape Canaveral Space Force Station

Loading…

次のパス (今後24時間)

TLE

最新Source: CelesTrak SupGP

元期: Sep 15, 2026, 02:31 UTC

1 58797C 24012L   26258.10534722 -.00010919  00000+0 -39555-3 0  2581
2 58797  43.0023 175.4567 0001502 270.8297 157.2841 15.27577264    13

AllMySatでSTARLINK-31193をリアルタイム追跡

Download on the App Store